JAL901 RJTT-ROAH

Flight info

Callsign JAL901
Flight time 2h 12m
Altitude 40000
Route LAXAS4 LAXAS Y56 TOHME Y54 KOHWA Y12 AYANO Y128 LAXEL Y52 TONAR Y525 IHEYA
Aircraft A359/H-SDE2E3GHIJ1J3J4J5LM1ORWXY/LB1D1

Departure

Time 2026-04-20 22:04
Airport Tokyo Haneda International Airport (RJTT)

Arrival

Time 2026-04-21 00:16
Airport Naha International Airport (ROAH)
Time Latitude Longitude Altitude Speed Heading
2026-04-20 21:35 35.54782 139.78265 30 ft 0 kts 54°
2026-04-20 21:53 35.54781 139.78265 30 ft 1 kts 54°
2026-04-20 21:54 35.54767 139.78241 28 ft 4 kts 54°
2026-04-20 21:54 35.54754 139.78218 28 ft 4 kts 51°
2026-04-20 21:54 35.54739 139.78200 28 ft 4 kts 15°
2026-04-20 21:54 35.54719 139.78199 29 ft 4 kts 338°
2026-04-20 21:55 35.54695 139.78214 28 ft 3 kts 329°
2026-04-20 21:55 35.54692 139.78216 29 ft 0 kts 330°
2026-04-20 21:59 35.54694 139.78215 28 ft 2 kts 330°
2026-04-20 21:59 35.54721 139.78195 29 ft 8 kts 329°
2026-04-20 22:00 35.54791 139.78145 30 ft 16 kts 329°
2026-04-20 22:00 35.54903 139.78065 29 ft 19 kts 323°
2026-04-20 22:00 35.54919 139.77936 28 ft 13 kts 301°
2026-04-20 22:00 35.55006 139.77866 28 ft 19 kts 330°
2026-04-20 22:01 35.55126 139.77781 28 ft 21 kts 330°
2026-04-20 22:01 35.55260 139.77686 28 ft 23 kts 330°
2026-04-20 22:01 35.55405 139.77583 29 ft 25 kts 330°
2026-04-20 22:01 35.55559 139.77474 29 ft 27 kts 330°
2026-04-20 22:02 35.55719 139.77362 27 ft 23 kts 330°
2026-04-20 22:02 35.55750 139.77258 27 ft 14 kts 223°
2026-04-20 22:02 35.55672 139.77193 30 ft 13 kts 214°
2026-04-20 22:02 35.55595 139.77193 31 ft 12 kts 153°
2026-04-20 22:03 35.55508 139.77255 30 ft 21 kts 149°
2026-04-20 22:03 35.55204 139.77471 28 ft 84 kts 150°
2026-04-20 22:03 35.54509 139.77965 27 ft 144 kts 149°
2026-04-20 22:03 35.53562 139.78671 400 ft 164 kts 151°
2026-04-20 22:04 35.52577 139.79408 1083 ft 168 kts 153°
2026-04-20 22:04 35.51564 139.80152 1848 ft 169 kts 157°
2026-04-20 22:04 35.50530 139.80867 2364 ft 173 kts 159°
2026-04-20 22:04 35.49439 139.81602 2723 ft 185 kts 159°
2026-04-20 22:05 35.48263 139.82368 3056 ft 198 kts 160°
2026-04-20 22:05 35.46983 139.83195 3323 ft 218 kts 159°
2026-04-20 22:05 35.45600 139.84121 3684 ft 234 kts 158°
2026-04-20 22:05 35.44120 139.85040 4091 ft 242 kts 168°
2026-04-20 22:06 35.42491 139.85113 4635 ft 233 kts 201°
2026-04-20 22:06 35.42001 139.84878 4820 ft 232 kts 210°
2026-04-20 22:06 35.41267 139.84314 5152 ft 232 kts 219°
2026-04-20 22:06 35.39989 139.83082 5733 ft 237 kts 221°
2026-04-20 22:07 35.38692 139.81804 6345 ft 240 kts 220°
2026-04-20 22:07 35.37370 139.80516 6901 ft 245 kts 221°
2026-04-20 22:07 35.36021 139.79212 7480 ft 249 kts 220°
2026-04-20 22:07 35.34651 139.77886 8072 ft 252 kts 221°
2026-04-20 22:08 35.33266 139.76554 8678 ft 255 kts 220°
2026-04-20 22:08 35.31861 139.75207 9282 ft 258 kts 220°
2026-04-20 22:08 35.30442 139.73840 9899 ft 261 kts 221°
2026-04-20 22:08 35.29066 139.72412 10344 ft 268 kts 224°
2026-04-20 22:09 35.27601 139.70846 10603 ft 283 kts 223°
2026-04-20 22:09 35.26105 139.69259 10876 ft 296 kts 223°
2026-04-20 22:09 35.24508 139.67580 11172 ft 308 kts 223°
2026-04-20 22:09 35.22850 139.65843 11456 ft 319 kts 223°
2026-04-20 22:10 35.21130 139.64046 11729 ft 330 kts 223°
2026-04-20 22:10 35.19362 139.62202 12075 ft 337 kts 223°
2026-04-20 22:10 35.17571 139.60337 12494 ft 341 kts 223°
2026-04-20 22:10 35.15763 139.58457 12944 ft 343 kts 223°
2026-04-20 22:11 35.13931 139.56551 13410 ft 345 kts 223°
2026-04-20 22:11 35.12095 139.54642 13823 ft 348 kts 223°
2026-04-20 22:11 35.10246 139.52719 14207 ft 350 kts 223°
2026-04-20 22:11 35.08565 139.50685 14572 ft 350 kts 233°
2026-04-20 22:12 35.07268 139.48081 14957 ft 349 kts 248°
2026-04-20 22:12 35.06583 139.45233 15358 ft 351 kts 258°
2026-04-20 22:12 35.06117 139.42347 15781 ft 352 kts 259°
2026-04-20 22:12 35.05650 139.39414 16210 ft 353 kts 259°
2026-04-20 22:13 35.05165 139.36435 16624 ft 354 kts 259°
2026-04-20 22:13 35.04678 139.33478 17002 ft 357 kts 259°
2026-04-20 22:13 35.04188 139.30525 17410 ft 358 kts 259°
2026-04-20 22:13 35.03694 139.27561 17802 ft 359 kts 259°
2026-04-20 22:14 35.03194 139.24568 18184 ft 361 kts 259°
2026-04-20 22:14 35.02690 139.21558 18504 ft 363 kts 259°
2026-04-20 22:14 35.02182 139.18526 18856 ft 364 kts 259°
2026-04-20 22:14 35.01673 139.15500 19198 ft 365 kts 259°
2026-04-20 22:15 35.01158 139.12445 19526 ft 367 kts 259°
2026-04-20 22:15 35.00643 139.09392 19844 ft 369 kts 259°
2026-04-20 22:15 35.00128 139.06351 20169 ft 370 kts 259°
2026-04-20 22:15 34.99602 139.03245 20527 ft 371 kts 259°
2026-04-20 22:16 34.99091 139.00155 20879 ft 372 kts 261°
2026-04-20 22:16 34.98764 138.97016 21195 ft 374 kts 265°
2026-04-20 22:16 34.98544 138.93891 21529 ft 374 kts 266°
2026-04-20 22:16 34.98359 138.90711 21874 ft 375 kts 266°
2026-04-20 22:17 34.98194 138.87535 22183 ft 376 kts 266°
2026-04-20 22:17 34.98036 138.84343 22441 ft 379 kts 266°
2026-04-20 22:17 34.97877 138.81122 22728 ft 380 kts 266°
2026-04-20 22:17 34.97715 138.77932 23056 ft 381 kts 266°
2026-04-20 22:18 34.97547 138.74697 23364 ft 383 kts 266°
2026-04-20 22:18 34.97375 138.71453 23612 ft 384 kts 266°
2026-04-20 22:18 34.97201 138.68200 23856 ft 385 kts 266°
2026-04-20 22:18 34.97026 138.64964 24104 ft 386 kts 266°
2026-04-20 22:19 34.96853 138.61764 24341 ft 388 kts 266°
2026-04-20 22:19 34.96668 138.58379 24580 ft 389 kts 266°
2026-04-20 22:19 34.96488 138.55081 24828 ft 390 kts 266°
2026-04-20 22:19 34.96307 138.51789 25075 ft 391 kts 266°
2026-04-20 22:20 34.96124 138.48481 25312 ft 392 kts 266°
2026-04-20 22:20 34.95938 138.45139 25528 ft 394 kts 266°
2026-04-20 22:20 34.95752 138.41800 25776 ft 395 kts 266°
2026-04-20 22:20 34.95565 138.38452 26026 ft 396 kts 265°
2026-04-20 22:21 34.95376 138.35103 26276 ft 398 kts 265°
2026-04-20 22:21 34.95185 138.31730 26511 ft 399 kts 265°
2026-04-20 22:21 34.94993 138.28354 26780 ft 400 kts 265°
2026-04-20 22:21 34.94799 138.24959 27035 ft 402 kts 265°
2026-04-20 22:22 34.94603 138.21551 27266 ft 404 kts 265°
2026-04-20 22:22 34.94405 138.18122 27526 ft 406 kts 265°
2026-04-20 22:22 34.94207 138.14686 27807 ft 407 kts 265°
2026-04-20 22:22 34.94005 138.11235 27893 ft 408 kts 265°
2026-04-20 22:23 34.93805 138.07797 27890 ft 407 kts 265°
2026-04-20 22:23 34.93604 138.04352 27887 ft 407 kts 265°
2026-04-20 22:23 34.93404 138.00945 27891 ft 408 kts 265°
2026-04-20 22:23 34.93198 137.97496 27897 ft 408 kts 265°
2026-04-20 22:24 34.92992 137.94048 27895 ft 408 kts 265°
2026-04-20 22:24 34.92786 137.90596 27890 ft 409 kts 265°
2026-04-20 22:24 34.92583 137.87208 27899 ft 409 kts 265°
2026-04-20 22:24 34.92366 137.83679 27901 ft 409 kts 265°
2026-04-20 22:25 34.92152 137.80229 27897 ft 409 kts 265°
2026-04-20 22:25 34.91939 137.76768 27908 ft 410 kts 265°
2026-04-20 22:25 34.91726 137.73294 27913 ft 410 kts 265°
2026-04-20 22:25 34.91459 137.69838 27905 ft 410 kts 262°
2026-04-20 22:26 34.90891 137.66432 27902 ft 410 kts 255°
2026-04-20 22:26 34.90040 137.63120 27905 ft 410 kts 252°
2026-04-20 22:26 34.89106 137.59836 27915 ft 411 kts 251°
2026-04-20 22:27 34.87139 137.53304 27907 ft 411 kts 251°
2026-04-20 22:27 34.86140 137.50039 27909 ft 412 kts 251°
2026-04-20 22:27 34.85146 137.46779 27905 ft 412 kts 251°
2026-04-20 22:27 34.84163 137.43495 27905 ft 412 kts 251°
2026-04-20 22:28 34.83216 137.40205 27907 ft 412 kts 252°
2026-04-20 22:28 34.82297 137.36956 27901 ft 412 kts 252°
2026-04-20 22:28 34.81365 137.33655 27905 ft 412 kts 252°
2026-04-20 22:28 34.80418 137.30311 27904 ft 413 kts 252°
2026-04-20 22:29 34.79491 137.27056 27903 ft 413 kts 252°
2026-04-20 22:29 34.78535 137.23715 27904 ft 413 kts 252°
2026-04-20 22:29 34.77599 137.20455 27903 ft 414 kts 252°
2026-04-20 22:29 34.76647 137.17152 27905 ft 414 kts 252°
2026-04-20 22:30 34.75694 137.13848 27904 ft 414 kts 252°
2026-04-20 22:30 34.74738 137.10541 27906 ft 415 kts 252°
2026-04-20 22:30 34.73781 137.07233 27907 ft 415 kts 252°
2026-04-20 22:30 34.72819 137.03921 27908 ft 415 kts 251°
2026-04-20 22:31 34.71711 137.00676 27910 ft 417 kts 246°
2026-04-20 22:31 34.70301 136.97591 27908 ft 419 kts 239°
2026-04-20 22:31 34.68571 136.94747 27907 ft 417 kts 235°
2026-04-20 22:31 34.66555 136.92233 27907 ft 415 kts 228°
2026-04-20 22:32 34.64330 136.89999 27906 ft 415 kts 225°
2026-04-20 22:32 34.62040 136.87849 27909 ft 416 kts 225°
2026-04-20 22:32 34.59729 136.85737 27910 ft 416 kts 224°
2026-04-20 22:32 34.57403 136.83628 27912 ft 417 kts 224°
2026-04-20 22:33 34.55085 136.81522 27918 ft 417 kts 224°
2026-04-20 22:33 34.52759 136.79397 28090 ft 419 kts 224°
2026-04-20 22:33 34.50436 136.77264 28415 ft 420 kts 225°
2026-04-20 22:33 34.48111 136.75124 28709 ft 421 kts 225°
2026-04-20 22:34 34.45774 136.72969 29006 ft 422 kts 225°
2026-04-20 22:34 34.43430 136.70810 29296 ft 424 kts 224°
2026-04-20 22:34 34.41073 136.68638 29581 ft 426 kts 225°
2026-04-20 22:34 34.38709 136.66462 29887 ft 427 kts 224°
2026-04-20 22:35 34.36341 136.64284 30165 ft 429 kts 224°
2026-04-20 22:35 34.33967 136.62104 30411 ft 430 kts 224°
2026-04-20 22:35 34.31604 136.59935 30658 ft 432 kts 224°
2026-04-20 22:35 34.29210 136.57742 30921 ft 433 kts 224°
2026-04-20 22:36 34.26816 136.55524 31163 ft 434 kts 225°
2026-04-20 22:36 34.24430 136.53281 31495 ft 434 kts 225°
2026-04-20 22:36 34.22044 136.51028 31683 ft 436 kts 225°
2026-04-20 22:36 34.19644 136.48762 31875 ft 439 kts 225°
2026-04-20 22:37 34.17232 136.46491 32108 ft 440 kts 225°
2026-04-20 22:37 34.14809 136.44218 32312 ft 441 kts 225°
2026-04-20 22:37 34.12382 136.41947 32591 ft 441 kts 225°
2026-04-20 22:37 34.09890 136.39767 32928 ft 445 kts 221°
2026-04-20 22:38 34.07210 136.37865 33263 ft 448 kts 218°
2026-04-20 22:38 34.04461 136.36060 33614 ft 448 kts 217°
2026-04-20 22:38 34.02632 136.34893 33835 ft 448 kts 216°
2026-04-20 22:38 33.99862 136.33151 34142 ft 448 kts 216°
2026-04-20 22:39 33.96202 136.30868 34509 ft 447 kts 216°
2026-04-20 22:39 33.94334 136.29702 34708 ft 446 kts 217°
2026-04-20 22:39 33.91610 136.28000 34992 ft 446 kts 217°
2026-04-20 22:39 33.88832 136.26259 35284 ft 445 kts 217°
2026-04-20 22:40 33.86085 136.24534 35577 ft 444 kts 217°
2026-04-20 22:40 33.83382 136.22836 35885 ft 443 kts 217°
2026-04-20 22:40 33.80651 136.21121 36178 ft 443 kts 217°
2026-04-20 22:40 33.77919 136.19406 36471 ft 442 kts 217°
2026-04-20 22:41 33.75195 136.17697 36764 ft 442 kts 217°
2026-04-20 22:41 33.72472 136.15989 37060 ft 441 kts 217°
2026-04-20 22:41 33.69748 136.14283 37384 ft 441 kts 217°
2026-04-20 22:41 33.67024 136.12580 37682 ft 440 kts 217°
2026-04-20 22:42 33.64315 136.10886 37962 ft 439 kts 218°
2026-04-20 22:42 33.61597 136.09186 38245 ft 439 kts 218°
2026-04-20 22:42 33.58892 136.07497 38519 ft 438 kts 218°
2026-04-20 22:42 33.56184 136.05808 38746 ft 438 kts 218°
2026-04-20 22:43 33.53479 136.04122 38958 ft 438 kts 217°
2026-04-20 22:43 33.50779 136.02440 39168 ft 437 kts 217°
2026-04-20 22:43 33.48080 136.00759 39360 ft 437 kts 217°
2026-04-20 22:43 33.45379 135.99079 39550 ft 437 kts 217°
2026-04-20 22:44 33.42681 135.97402 39733 ft 437 kts 217°
2026-04-20 22:44 33.40017 135.95746 39889 ft 437 kts 217°
2026-04-20 22:44 33.34596 135.92381 39949 ft 438 kts 217°
2026-04-20 22:45 33.29180 135.89024 39948 ft 438 kts 217°
2026-04-20 22:45 33.23758 135.85668 39952 ft 439 kts 217°
2026-04-20 22:46 33.18325 135.82309 39957 ft 440 kts 216°
2026-04-20 22:46 33.12868 135.78942 39959 ft 441 kts 216°
2026-04-20 22:47 33.07412 135.75580 39960 ft 442 kts 216°
2026-04-20 22:47 33.01952 135.72220 39962 ft 442 kts 216°
2026-04-20 22:48 32.96489 135.68863 39960 ft 442 kts 216°
2026-04-20 22:48 32.91012 135.65501 39961 ft 443 kts 216°
2026-04-20 22:49 32.85569 135.62165 39966 ft 443 kts 216°
2026-04-20 22:49 32.80083 135.58807 39967 ft 443 kts 216°
2026-04-20 22:50 32.74596 135.55454 39961 ft 443 kts 217°
2026-04-20 22:50 32.69096 135.52098 39963 ft 443 kts 217°
2026-04-20 22:51 32.63609 135.48754 39961 ft 444 kts 217°
2026-04-20 22:51 32.58115 135.45412 39967 ft 444 kts 217°
2026-04-20 22:52 32.52621 135.42074 39962 ft 444 kts 217°
2026-04-20 22:52 32.47124 135.38739 39965 ft 444 kts 217°
2026-04-20 22:53 32.41631 135.35408 39962 ft 444 kts 217°
2026-04-20 22:53 32.36133 135.32080 39967 ft 444 kts 216°
2026-04-20 22:54 32.30636 135.28757 39963 ft 444 kts 216°
2026-04-20 22:54 32.25168 135.25457 39965 ft 444 kts 216°
2026-04-20 22:55 32.19667 135.22141 39965 ft 444 kts 216°
2026-04-20 22:55 32.14142 135.18809 39968 ft 448 kts 216°
2026-04-20 22:56 32.09050 135.14770 39970 ft 435 kts 230°
2026-04-20 22:56 32.05054 135.09520 39973 ft 428 kts 238°
2026-04-20 22:57 32.01420 135.03962 39973 ft 428 kts 239°
2026-04-20 22:57 31.97842 134.98401 39972 ft 428 kts 239°
2026-04-20 22:58 31.94220 134.92824 39975 ft 428 kts 239°
2026-04-20 22:58 31.90584 134.87270 39976 ft 429 kts 239°
2026-04-20 22:59 31.86936 134.81715 39974 ft 429 kts 238°
2026-04-20 22:59 31.83283 134.76160 39977 ft 429 kts 238°
2026-04-20 23:00 31.79633 134.70616 39988 ft 429 kts 238°
2026-04-20 23:00 31.75979 134.65073 39981 ft 429 kts 238°
2026-04-20 23:01 31.72322 134.59533 39984 ft 428 kts 238°
2026-04-20 23:01 31.68669 134.54008 39974 ft 428 kts 238°
2026-04-20 23:02 31.65031 134.48512 39979 ft 429 kts 238°
2026-04-20 23:02 31.61363 134.42978 39978 ft 429 kts 238°
2026-04-20 23:03 31.57693 134.37451 39981 ft 430 kts 238°
2026-04-20 23:03 31.54011 134.31914 39981 ft 430 kts 238°
2026-04-20 23:04 31.50329 134.26384 39983 ft 430 kts 238°
2026-04-20 23:04 31.46644 134.20858 39985 ft 430 kts 238°
2026-04-20 23:05 31.42977 134.15365 39986 ft 431 kts 238°
2026-04-20 23:05 31.39279 134.09836 39984 ft 431 kts 238°
2026-04-20 23:06 31.35579 134.04310 39990 ft 431 kts 238°
2026-04-20 23:06 31.31872 133.98783 39994 ft 432 kts 238°
2026-04-20 23:07 31.28162 133.93259 39992 ft 432 kts 238°
2026-04-20 23:07 31.24443 133.87729 39990 ft 432 kts 238°
2026-04-20 23:08 31.20751 133.82247 39995 ft 432 kts 238°
2026-04-20 23:08 31.17034 133.76736 39996 ft 433 kts 237°
2026-04-20 23:09 31.13303 133.71211 39999 ft 433 kts 237°
2026-04-20 23:09 31.09570 133.65693 40000 ft 433 kts 237°
2026-04-20 23:10 31.05836 133.60180 40000 ft 433 kts 237°
2026-04-20 23:10 31.02092 133.54666 40002 ft 433 kts 237°
2026-04-20 23:11 30.98379 133.49198 39999 ft 433 kts 237°
2026-04-20 23:11 30.94639 133.43689 40004 ft 433 kts 237°
2026-04-20 23:12 30.90900 133.38192 40006 ft 433 kts 237°
2026-04-20 23:12 30.87157 133.32699 40004 ft 433 kts 237°
2026-04-20 23:13 30.83405 133.27203 40004 ft 433 kts 237°
2026-04-20 23:13 30.79656 133.21717 40001 ft 433 kts 237°
2026-04-20 23:14 30.75898 133.16227 40009 ft 433 kts 237°
2026-04-20 23:14 30.72161 133.10774 40003 ft 433 kts 237°
2026-04-20 23:15 30.68400 133.05294 40010 ft 433 kts 237°
2026-04-20 23:15 30.64635 132.99817 40010 ft 433 kts 237°
2026-04-20 23:16 30.60870 132.94346 40005 ft 433 kts 237°
2026-04-20 23:16 30.57105 132.88884 40014 ft 433 kts 237°
2026-04-20 23:17 30.53334 132.83419 40000 ft 433 kts 237°
2026-04-20 23:17 30.49562 132.77962 40016 ft 434 kts 237°
2026-04-20 23:18 30.45809 132.72540 40013 ft 433 kts 237°
2026-04-20 23:18 30.42031 132.67089 40002 ft 434 kts 237°
2026-04-20 23:19 30.38252 132.61642 40009 ft 434 kts 237°
2026-04-20 23:19 30.34468 132.56197 40008 ft 434 kts 236°
2026-04-20 23:20 30.30680 132.50754 40009 ft 434 kts 236°
2026-04-20 23:20 30.26892 132.45318 40006 ft 434 kts 236°
2026-04-20 23:21 30.23102 132.39886 40008 ft 434 kts 236°
2026-04-20 23:21 30.19327 132.34483 40008 ft 434 kts 236°
2026-04-20 23:22 30.15528 132.29053 40012 ft 434 kts 236°
2026-04-20 23:22 30.11727 132.23629 40016 ft 435 kts 236°
2026-04-20 23:23 30.07918 132.18199 40015 ft 435 kts 236°
2026-04-20 23:23 30.04104 132.12770 40014 ft 435 kts 236°
2026-04-20 23:24 30.00935 132.08265 40018 ft 435 kts 236°
2026-04-20 23:24 29.97116 132.02843 40018 ft 435 kts 236°
2026-04-20 23:25 29.92670 131.96539 40022 ft 436 kts 236°
2026-04-20 23:25 29.89460 131.91994 40022 ft 436 kts 236°
2026-04-20 23:26 29.85652 131.86610 40021 ft 436 kts 236°
2026-04-20 23:26 29.81822 131.81200 40025 ft 436 kts 236°
2026-04-20 23:27 29.77930 131.75839 40025 ft 437 kts 234°
2026-04-20 23:27 29.73964 131.70515 40024 ft 437 kts 234°
2026-04-20 23:28 29.70029 131.65229 40031 ft 437 kts 234°
2026-04-20 23:28 29.66079 131.59907 40030 ft 437 kts 234°
2026-04-20 23:29 29.62128 131.54580 40030 ft 438 kts 234°
2026-04-20 23:29 29.58168 131.49247 40037 ft 438 kts 234°
2026-04-20 23:30 29.54210 131.43925 40037 ft 438 kts 234°
2026-04-20 23:30 29.50277 131.38643 40036 ft 438 kts 234°
2026-04-20 23:31 29.46287 131.33294 40039 ft 438 kts 234°
2026-04-20 23:31 29.42347 131.28016 40035 ft 439 kts 234°
2026-04-20 23:32 29.38370 131.22698 40033 ft 439 kts 234°
2026-04-20 23:32 29.34391 131.17384 40050 ft 439 kts 234°
2026-04-20 23:33 29.30407 131.12069 40030 ft 439 kts 234°
2026-04-20 23:33 29.26424 131.06762 40041 ft 440 kts 234°
2026-04-20 23:34 29.22432 131.01451 40047 ft 440 kts 234°
2026-04-20 23:34 29.18455 130.96167 40034 ft 440 kts 234°
2026-04-20 23:35 29.12456 130.88209 40039 ft 440 kts 234°
2026-04-20 23:36 29.08450 130.82903 40039 ft 441 kts 234°
2026-04-20 23:36 29.04464 130.77631 40048 ft 441 kts 233°
2026-04-20 23:37 29.00452 130.72331 40048 ft 441 kts 233°
2026-04-20 23:37 28.96430 130.67025 40046 ft 441 kts 233°
2026-04-20 23:38 28.92410 130.61728 40051 ft 442 kts 233°
2026-04-20 23:38 28.88379 130.56424 40052 ft 442 kts 233°
2026-04-20 23:39 28.84347 130.51125 40050 ft 442 kts 233°
2026-04-20 23:39 28.80310 130.45826 40050 ft 443 kts 233°
2026-04-20 23:40 28.76286 130.40552 40052 ft 443 kts 233°
2026-04-20 23:40 28.72232 130.35245 40052 ft 444 kts 233°
2026-04-20 23:41 28.68179 130.29946 40054 ft 444 kts 233°
2026-04-20 23:41 28.64113 130.24636 40056 ft 444 kts 233°
2026-04-20 23:42 28.60041 130.19326 40056 ft 445 kts 233°
2026-04-20 23:42 28.55970 130.14024 40047 ft 445 kts 233°
2026-04-20 23:43 28.51893 130.08722 40040 ft 445 kts 233°
2026-04-20 23:43 28.47837 130.03452 40032 ft 446 kts 233°
2026-04-20 23:44 28.43745 129.98144 40024 ft 446 kts 233°
2026-04-20 23:44 28.39642 129.92827 40021 ft 447 kts 232°
2026-04-20 23:45 28.35540 129.87518 40019 ft 447 kts 232°
2026-04-20 23:45 28.31433 129.82210 40021 ft 448 kts 232°
2026-04-20 23:46 28.27321 129.76902 40027 ft 448 kts 232°
2026-04-20 23:46 28.23206 129.71597 40037 ft 448 kts 232°
2026-04-20 23:47 28.19083 129.66288 40047 ft 449 kts 232°
2026-04-20 23:47 28.14949 129.60972 40055 ft 449 kts 232°
2026-04-20 23:48 28.10841 129.55697 40063 ft 449 kts 232°
2026-04-20 23:48 28.06704 129.50389 40068 ft 449 kts 232°
2026-04-20 23:49 28.02561 129.45082 40066 ft 450 kts 232°
2026-04-20 23:49 27.98410 129.39772 40073 ft 450 kts 232°
2026-04-20 23:50 27.94263 129.34472 40068 ft 450 kts 232°
2026-04-20 23:50 27.90107 129.29167 40070 ft 450 kts 232°
2026-04-20 23:51 27.85975 129.23901 40073 ft 450 kts 232°
2026-04-20 23:51 27.81818 129.18610 40072 ft 450 kts 231°
2026-04-20 23:52 27.77658 129.13321 40069 ft 450 kts 231°
2026-04-20 23:52 27.73492 129.08031 40069 ft 451 kts 231°
2026-04-20 23:53 27.69321 129.02746 40072 ft 451 kts 231°
2026-04-20 23:53 27.65174 128.97496 40077 ft 451 kts 231°
2026-04-20 23:54 27.60995 128.92214 40073 ft 451 kts 231°
2026-04-20 23:54 27.56820 128.86942 40065 ft 451 kts 231°
2026-04-20 23:55 27.52634 128.81664 40057 ft 451 kts 231°
2026-04-20 23:55 27.48451 128.76395 40046 ft 451 kts 231°
2026-04-20 23:56 27.44295 128.71104 40047 ft 450 kts 234°
2026-04-20 23:56 27.40833 128.65263 40042 ft 448 kts 240°
2026-04-20 23:57 27.37642 128.59246 40051 ft 448 kts 241°
2026-04-20 23:57 27.34508 128.53236 40050 ft 448 kts 241°
2026-04-20 23:57 27.32931 128.50224 39766 ft 445 kts 241°
2026-04-20 23:58 27.31355 128.47223 39011 ft 447 kts 240°
2026-04-20 23:58 27.29767 128.44206 38191 ft 450 kts 240°
2026-04-20 23:58 27.28163 128.41169 37466 ft 453 kts 240°
2026-04-20 23:58 27.26553 128.38126 36763 ft 452 kts 240°
2026-04-20 23:59 27.24942 128.35083 36054 ft 452 kts 241°
2026-04-20 23:59 27.23331 128.32044 35321 ft 453 kts 241°
2026-04-20 23:59 27.21715 128.28994 34490 ft 455 kts 241°
2026-04-20 23:59 27.20091 128.25928 33592 ft 459 kts 241°
2026-04-21 00:00 27.18453 128.22840 32692 ft 461 kts 241°
2026-04-21 00:00 27.16812 128.19745 31788 ft 463 kts 241°
2026-04-21 00:00 27.15159 128.16632 30877 ft 466 kts 241°
2026-04-21 00:00 27.13492 128.13495 29879 ft 469 kts 241°
2026-04-21 00:01 27.11814 128.10338 28968 ft 469 kts 241°
2026-04-21 00:01 27.10109 128.07264 28502 ft 460 kts 238°
2026-04-21 00:01 27.08165 128.04420 27873 ft 457 kts 231°
2026-04-21 00:01 27.05895 128.01894 27190 ft 460 kts 223°
2026-04-21 00:02 27.03310 127.99779 26480 ft 462 kts 215°
2026-04-21 00:02 27.00441 127.98143 25782 ft 464 kts 206°
2026-04-21 00:02 26.97374 127.97128 25089 ft 468 kts 194°
2026-04-21 00:02 26.94128 127.96724 24410 ft 467 kts 188°
2026-04-21 00:03 26.90898 127.96463 23749 ft 464 kts 188°
2026-04-21 00:03 26.87702 127.96207 22985 ft 459 kts 188°
2026-04-21 00:03 26.84523 127.95945 22225 ft 455 kts 188°
2026-04-21 00:03 26.81382 127.95683 21476 ft 451 kts 188°
2026-04-21 00:04 26.78268 127.95420 20776 ft 447 kts 188°
2026-04-21 00:04 26.75184 127.95159 20085 ft 442 kts 187°
2026-04-21 00:04 26.72122 127.94899 19417 ft 438 kts 187°
2026-04-21 00:04 26.69104 127.94642 18759 ft 434 kts 187°
2026-04-21 00:05 26.66107 127.94387 18078 ft 430 kts 187°
2026-04-21 00:05 26.63142 127.94135 17330 ft 426 kts 187°
2026-04-21 00:05 26.61194 127.93970 16847 ft 423 kts 187°
2026-04-21 00:05 26.57621 127.93666 15986 ft 418 kts 186°
2026-04-21 00:06 26.54728 127.93420 15285 ft 414 kts 186°
2026-04-21 00:06 26.51865 127.93177 14605 ft 410 kts 186°
2026-04-21 00:06 26.49065 127.92939 13951 ft 406 kts 186°
2026-04-21 00:06 26.46225 127.92698 13216 ft 402 kts 186°
2026-04-21 00:07 26.43449 127.92464 12488 ft 398 kts 186°
2026-04-21 00:07 26.40698 127.92220 11782 ft 394 kts 187°
2026-04-21 00:07 26.38095 127.91528 11142 ft 387 kts 202°
2026-04-21 00:07 26.35677 127.90331 10803 ft 373 kts 206°
2026-04-21 00:08 26.33371 127.89129 10549 ft 359 kts 206°
2026-04-21 00:08 26.31133 127.87975 10172 ft 350 kts 206°
2026-04-21 00:08 26.28935 127.86842 9738 ft 343 kts 206°
2026-04-21 00:08 26.26783 127.85736 9283 ft 337 kts 205°
2026-04-21 00:09 26.24658 127.84648 8742 ft 334 kts 205°
2026-04-21 00:09 26.22553 127.83571 8199 ft 332 kts 205°
2026-04-21 00:09 26.20458 127.82501 7669 ft 330 kts 205°
2026-04-21 00:09 26.18367 127.81434 7147 ft 330 kts 205°
2026-04-21 00:10 26.16282 127.80371 6627 ft 329 kts 205°
2026-04-21 00:10 26.14208 127.79312 6067 ft 327 kts 205°
2026-04-21 00:10 26.12143 127.78263 5536 ft 325 kts 204°
2026-04-21 00:10 26.10109 127.77230 5090 ft 317 kts 205°
2026-04-21 00:11 26.08134 127.76226 4632 ft 306 kts 205°
2026-04-21 00:11 26.06311 127.75087 4166 ft 296 kts 220°
2026-04-21 00:11 26.05434 127.73964 3869 ft 289 kts 241°
2026-04-21 00:11 26.04837 127.71202 3283 ft 266 kts 270°
2026-04-21 00:12 26.04800 127.69225 2821 ft 252 kts 271°
2026-04-21 00:12 26.04769 127.67319 2404 ft 240 kts 271°
2026-04-21 00:12 26.04981 127.65567 2201 ft 218 kts 294°
2026-04-21 00:12 26.05535 127.64690 2124 ft 198 kts 323°
2026-04-21 00:13 26.06666 127.64055 2062 ft 174 kts 342°
2026-04-21 00:13 26.07795 127.63796 1985 ft 160 kts
2026-04-21 00:13 26.08885 127.63799 1784 ft 153 kts 359°
2026-04-21 00:13 26.09923 127.63735 1579 ft 146 kts 358°
2026-04-21 00:14 26.10913 127.63684 1385 ft 138 kts 359°
2026-04-21 00:14 26.11846 127.63641 1202 ft 132 kts 359°
2026-04-21 00:14 26.12741 127.63598 1036 ft 131 kts 359°
2026-04-21 00:14 26.13656 127.63554 868 ft 131 kts 359°
2026-04-21 00:15 26.14555 127.63498 710 ft 130 kts
2026-04-21 00:15 26.15447 127.63481 531 ft 129 kts
2026-04-21 00:15 26.16337 127.63449 374 ft 128 kts 359°
2026-04-21 00:15 26.17219 127.63379 195 ft 126 kts 359°
2026-04-21 00:16 26.18099 127.63347 32 ft 125 kts 358°
2026-04-21 00:16 26.18876 127.63308 22 ft 96 kts 358°
2026-04-21 00:16 26.19453 127.63282 24 ft 67 kts 358°
2026-04-21 00:16 26.19767 127.63354 28 ft 34 kts 26°
2026-04-21 00:17 26.19964 127.63449 26 ft 28 kts 359°
2026-04-21 00:17 26.20139 127.63439 24 ft 24 kts 358°
2026-04-21 00:17 26.20283 127.63443 27 ft 17 kts 29°
2026-04-21 00:17 26.20304 127.63562 23 ft 17 kts 88°
2026-04-21 00:18 26.20309 127.63704 24 ft 21 kts 88°
2026-04-21 00:18 26.20316 127.63871 26 ft 23 kts 87°
2026-04-21 00:18 26.20322 127.64052 27 ft 24 kts 89°
2026-04-21 00:18 26.20330 127.64245 26 ft 26 kts 88°
2026-04-21 00:19 26.20338 127.64449 24 ft 27 kts 87°
2026-04-21 00:19 26.20345 127.64644 23 ft 23 kts 88°
2026-04-21 00:19 26.20356 127.64759 26 ft 11 kts 70°
2026-04-21 00:19 26.20401 127.64818 26 ft 9 kts 47°
2026-04-21 00:20 26.20435 127.64858 27 ft 3 kts 46°
2026-04-21 00:20 26.20438 127.64862 27 ft 0 kts 46°